Brownsville, TX

1:31 PM CST on February 27, 2017 (GMT -0600)
Brownsville-South Padre I International

Weather History for KBRO - January, 2012

Change the Weather History Date:

Saturday, January 7, 2012

  Actual Average Record
Temperature  
Mean Temperature 68 °F 60 °F  
Max Temperature 81 °F 70 °F 85 °F (1923)
Min Temperature 55 °F 51 °F 30 °F (1910)
Degree Days  
Heating Degree Days 0 6  
Month to date heating degree days 25 42  
Since 1 July heating degree days 207 261  
Cooling Degree Days 3 2  
Month to date cooling degree days 7 14  
Year to date cooling degree days 7 14  
Growing Degree Days 17 (Base 50)    
Moisture  
Dew Point 60 °F    
Average Humidity 77    
Maximum Humidity 100    
Minimum Humidity 54    
Precipitation  
Precipitation 0.00 in 0.03 in 2.28 in (1878)
Month to date precipitation 0.23 0.24  
Year to date precipitation 0.23 0.24  
Sea Level Pressure  
Sea Level Pressure 29.98 in    
Wind  
Wind Speed 9 mph (South)    
Max Wind Speed 22 mph    
Max Gust Speed 26 mph    
Visibility 4 miles    
Events Fog    
T = Trace of Precipitation, MM = Missing Value Source: NWS Daily Summary

Daily Weather History Graph

Daily Weather History Graph

Search for Another Location

Airport or City:

Trip Planner

Search our weather history database for the weather conditions in past years. The results will help you decide how hot, cold, wet, or windy it might be!

Date:

Astronomy

Jan. 07, 2012 Rise Set
Actual Time 7:17 AM CST 5:53 PM CST
Civil Twilight 6:52 AM CST 6:19 PM CST
Nautical Twilight 6:24 AM CST 6:47 PM CST
Astronomical Twilight 5:56 AM CST 7:15 PM CST
Moon 4:40 PM CST (1/7) 5:48 AM CST (1/7)
Length of Visible Light 11h 26m
Length of Day
10h 36m
Waxing Gibbous, 97% of the Moon is Illuminated
Jan 7
Waxing Gibbous
Jan 9
Full
Jan 16
Last Quarter
Jan 23
New
Jan 30
First Quarter

Hourly Weather History & Observations

Time (CST) Temp. Dew Point Humidity Pressure Visibility Wind Dir Wind Speed Gust Speed Precip Events Conditions
12:53 AM 61.0 °F 60.1 °F 97% 29.97 in 10.0 mi South 6.9 mph - N/A   Clear
1:53 AM 62.1 °F 61.0 °F 96% 29.95 in 10.0 mi South 8.1 mph - N/A   Clear
2:53 AM 61.0 °F 60.1 °F 97% 29.95 in 9.0 mi South 5.8 mph - N/A   Clear
3:53 AM 60.1 °F 60.1 °F 100% 29.95 in 6.0 mi South 5.8 mph - N/A   Clear
4:12 AM 59.0 °F 59.0 °F 100% 29.95 in 1.8 mi South 4.6 mph - N/A   Partly Cloudy
4:19 AM 60.8 °F 59.0 °F 94% 29.95 in 0.8 mi Calm Calm - N/A   Mist
4:29 AM 59.0 °F 59.0 °F 100% 29.95 in 0.5 mi Calm Calm - N/A Fog Fog
4:37 AM 57.2 °F 57.2 °F 100% 29.95 in 0.2 mi South 3.5 mph - N/A Fog Fog
4:51 AM 57.2 °F 57.2 °F 100% 29.95 in 0.2 mi South 3.5 mph - N/A Fog Fog
4:53 AM 57.0 °F 57.0 °F 100% 29.95 in 0.2 mi South 3.5 mph - N/A Fog Fog
5:32 AM 55.4 °F 55.4 °F 100% 29.95 in 0.5 mi South 4.6 mph - N/A Fog Fog
5:43 AM 57.2 °F 55.4 °F 94% 29.96 in 0.2 mi South 3.5 mph - N/A Fog Fog
5:53 AM 55.9 °F 55.9 °F 100% 29.96 in 0.5 mi South 3.5 mph - N/A Fog Fog
6:12 AM 55.4 °F 55.4 °F 100% 29.96 in 0.2 mi South 3.5 mph - N/A Fog Fog
6:21 AM 55.4 °F 55.4 °F 100% 29.96 in 0.5 mi South 3.5 mph - N/A Fog Fog
6:53 AM 55.9 °F 55.0 °F 97% 29.97 in 0.5 mi SSE 4.6 mph - N/A Fog Fog
7:04 AM 55.4 °F 55.4 °F 100% 29.98 in 0.2 mi SSE 3.5 mph - N/A Fog Fog
7:21 AM 55.4 °F 55.4 °F 100% 29.99 in 0.2 mi Calm Calm - N/A Fog Fog
7:53 AM 55.9 °F 55.9 °F 100% 30.00 in 0.2 mi Calm Calm - N/A Fog Fog
8:06 AM 55.4 °F 55.4 °F 100% 30.01 in 0.2 mi Calm Calm - N/A Fog Fog
8:14 AM 57.2 °F 57.2 °F 100% 30.01 in 1.0 mi Calm Calm - N/A   Mist
8:21 AM 59.0 °F 59.0 °F 100% 30.01 in 3.0 mi Calm Calm - N/A   Mostly Cloudy
8:35 AM 60.8 °F 60.8 °F 100% 30.02 in 8.0 mi SSE 4.6 mph - N/A   Scattered Clouds
8:53 AM 62.1 °F 62.1 °F 100% 30.02 in 8.0 mi South 5.8 mph - N/A   Clear
9:53 AM 68.0 °F 64.0 °F 87% 30.04 in 10.0 mi SSW 12.7 mph - N/A   Clear
10:53 AM 73.0 °F 62.1 °F 68% 30.04 in 10.0 mi SSW 17.3 mph - N/A   Clear
11:53 AM 77.0 °F 61.0 °F 58% 30.01 in 10.0 mi South 15.0 mph - N/A   Clear
12:53 PM 79.0 °F 61.0 °F 54% 29.98 in 10.0 mi South 16.1 mph - N/A   Clear
1:53 PM 79.0 °F 61.0 °F 54% 29.96 in 10.0 mi South 18.4 mph - N/A   Clear
2:53 PM 78.1 °F 60.1 °F 54% 29.95 in 10.0 mi South 15.0 mph - N/A   Clear
3:53 PM 78.1 °F 61.0 °F 56% 29.96 in 10.0 mi SSW 16.1 mph 21.9 mph N/A   Clear
4:53 PM 75.0 °F 63.0 °F 66% 29.96 in 10.0 mi South 16.1 mph - N/A   Clear
5:53 PM 71.1 °F 64.0 °F 78% 29.97 in 10.0 mi South 11.5 mph - N/A   Clear
6:53 PM 68.0 °F 64.0 °F 87% 29.98 in 10.0 mi South 8.1 mph - N/A   Clear
7:53 PM 64.0 °F 62.1 °F 93% 30.00 in 9.0 mi SSE 6.9 mph - N/A   Clear
8:53 PM 64.0 °F 62.1 °F 93% 30.00 in 7.0 mi SSE 6.9 mph - N/A   Clear
9:53 PM 64.0 °F 63.0 °F 96% 30.01 in 5.0 mi SSE 6.9 mph - N/A   Clear
10:47 PM 62.6 °F 62.6 °F 100% 30.01 in 2.5 mi SSE 5.8 mph - N/A   Scattered Clouds
10:53 PM 63.0 °F 62.1 °F 97% 30.01 in 2.0 mi SSE 4.6 mph - N/A   Mostly Cloudy
10:59 PM 62.6 °F 62.6 °F 100% 30.01 in 1.5 mi SSE 4.6 mph - N/A   Mostly Cloudy
11:04 PM 62.6 °F 62.6 °F 100% 30.01 in 0.8 mi SSE 5.8 mph - N/A   Mist
11:15 PM 64.4 °F 62.6 °F 94% 30.01 in 0.2 mi SSE 6.9 mph - N/A Fog Fog
11:53 PM 64.0 °F 64.0 °F 100% 30.00 in 0.2 mi SSE 5.8 mph - 0.01 in Fog Fog